Location: Unspecified
(35.6895°N, 139.6917°E)
Time: 02:05:43
(UTC+00:00)

ASTRO H - Pass Details

Date: 04 October 2021
Orbit: 561 x 579 km, 31.0° (Epoch: 22 October)

Event Time Altitude Azimuth Distance (km) Brightness Sun altitude
Rises 09:18:55 0° 224° (SW) 2,732 ? -12.6°
Reaches altitude 10° 09:21:39 10° 207° (SSW) 1,836 ? -13.1°
Maximum altitude 09:24:47 20° 159° (SSE) 1,311 ? -13.8°
Enters shadow 09:26:16 17° 132° (SE) 1,446 ? -14.1°
